Starlink 32561

operational
NORAD ID: 62026 Int'l Des: 2024-213 Owner: SPXS Country: US Constellation: starlink
LEOCIRCULAR

Starlink 32561について

説明を読み込み中...

リアルタイム位置

3D地球を読み込み中...

次回通過

高度履歴

Altitude vs Time

uPlot chart will show altitude changes over time

軌道要素

1 62026U 24213U 25352.94932824 .00020654 00000-0 70761-3 0 9997
2 62026 53.1572 183.1170 0001487 73.6215 286.4949 15.30196905 60799
Epoch: Dec 18, 2025 • Age: 18 hours

現在のステータス

高度 492.8 km
速度 7.62 km/s
衛星直下点 -48.56°S, 71.91°E
打ち上げ日 Nov 18, 2024
運用期間 1 years
タイプ internet

技術仕様

分類 Payload
質量 730.00 kg
乾燥質量 700.00 kg
総質量 730.00 kg
長さ 0.30 m
直径 4.10 m
スパン 29.00 m
形状 Box + pan
製造者 SPXS
バスタイプ Starlink V2M
フェーズステータス In Orbit
所有者/国 SPXS/US

大規模コンステレーション

Loading constellations...